THY5BF LTFM-LTAI

Flight info

Callsign THY5BF
Flight time 0h 56m
Altitude 33000
Route RATVU1E/36 RATVU UT35 BABSA
Aircraft B738/M-SDE2E3FGHIRWXY/LB1

Departure

Time 2026-05-04 12:56
Airport İstanbul Airport (LTFM)

Arrival

Time 2026-05-04 13:53
Airport Antalya International Airport (LTAI)
Time Latitude Longitude Altitude Speed Heading
2026-05-04 11:41 41.25425 28.74893 310 ft 0 kts 269°
2026-05-04 12:39 41.25425 28.74905 310 ft 3 kts 274°
2026-05-04 12:39 41.25422 28.74930 309 ft 3 kts 297°
2026-05-04 12:39 41.25411 28.74949 310 ft 3 kts 334°
2026-05-04 12:39 41.25396 28.74954 309 ft 0 kts 359°
2026-05-04 12:47 41.25397 28.74954 308 ft 1 kts 359°
2026-05-04 12:47 41.25414 28.74954 310 ft 4 kts
2026-05-04 12:47 41.25447 28.74954 309 ft 6 kts
2026-05-04 12:47 41.25497 28.74953 308 ft 9 kts 359°
2026-05-04 12:48 41.25560 28.74952 309 ft 9 kts 359°
2026-05-04 12:48 41.25617 28.74951 309 ft 7 kts
2026-05-04 12:48 41.25642 28.74997 309 ft 7 kts 86°
2026-05-04 12:48 41.25643 28.75061 310 ft 7 kts 89°
2026-05-04 12:49 41.25643 28.75141 310 ft 10 kts 89°
2026-05-04 12:49 41.25653 28.75182 310 ft 2 kts 26°
2026-05-04 12:49 41.25669 28.75175 311 ft 3 kts 342°
2026-05-04 12:49 41.25689 28.75167 311 ft 4 kts 342°
2026-05-04 12:50 41.25723 28.75160 311 ft 6 kts 359°
2026-05-04 12:50 41.25772 28.75159 312 ft 7 kts 359°
2026-05-04 12:50 41.25825 28.75147 311 ft 9 kts 338°
2026-05-04 12:50 41.25888 28.75116 312 ft 11 kts 341°
2026-05-04 12:51 41.25958 28.75085 312 ft 10 kts 341°
2026-05-04 12:51 41.26025 28.75054 312 ft 10 kts 341°
2026-05-04 12:51 41.26087 28.75026 312 ft 9 kts 341°
2026-05-04 12:51 41.26149 28.74998 312 ft 9 kts 341°
2026-05-04 12:52 41.26209 28.74982 312 ft 9 kts 14°
2026-05-04 12:52 41.26239 28.75047 312 ft 9 kts 85°
2026-05-04 12:52 41.26240 28.75120 313 ft 7 kts 89°
2026-05-04 12:52 41.26241 28.75170 313 ft 3 kts 89°
2026-05-04 12:53 41.26241 28.75191 313 ft 2 kts 89°
2026-05-04 12:53 41.26241 28.75223 313 ft 5 kts 89°
2026-05-04 12:53 41.26242 28.75294 313 ft 10 kts 89°
2026-05-04 12:53 41.26243 28.75402 314 ft 12 kts 89°
2026-05-04 12:54 41.26244 28.75500 316 ft 8 kts 89°
2026-05-04 12:54 41.26245 28.75552 318 ft 5 kts 89°
2026-05-04 12:54 41.26245 28.75600 321 ft 5 kts 89°
2026-05-04 12:54 41.26246 28.75646 323 ft 5 kts 89°
2026-05-04 12:55 41.26264 28.75667 323 ft 3 kts
2026-05-04 12:55 41.26269 28.75667 324 ft 0 kts
2026-05-04 12:55 41.26270 28.75667 324 ft 1 kts
2026-05-04 12:56 41.26352 28.75666 322 ft 39 kts 359°
2026-05-04 12:56 41.26868 28.75657 319 ft 107 kts 359°
2026-05-04 12:56 41.27810 28.75637 373 ft 157 kts 358°
2026-05-04 12:56 41.28884 28.75629 1247 ft 150 kts 359°
2026-05-04 12:57 41.29916 28.75776 2070 ft 157 kts 23°
2026-05-04 12:57 41.30824 28.76759 2577 ft 184 kts 39°
2026-05-04 12:57 41.31963 28.77760 2806 ft 209 kts 26°
2026-05-04 12:57 41.33267 28.78736 3242 ft 223 kts 27°
2026-05-04 12:58 41.34672 28.79796 3696 ft 238 kts 27°
2026-05-04 12:58 41.36134 28.80890 4539 ft 242 kts 27°
2026-05-04 12:58 41.37456 28.82303 5453 ft 250 kts 48°
2026-05-04 12:58 41.38250 28.84414 6270 ft 264 kts 70°
2026-05-04 12:59 41.38445 28.86907 7058 ft 275 kts 83°
2026-05-04 12:59 41.38454 28.89462 7885 ft 278 kts 86°
2026-05-04 12:59 41.37947 28.92016 8615 ft 298 kts 113°
2026-05-04 12:59 41.36522 28.94101 9345 ft 316 kts 144°
2026-05-04 13:00 41.34412 28.95059 10042 ft 327 kts 175°
2026-05-04 13:00 41.32100 28.95131 10455 ft 343 kts 175°
2026-05-04 13:00 41.29700 28.95816 10614 ft 363 kts 156°
2026-05-04 13:00 41.27417 28.97287 10902 ft 376 kts 147°
2026-05-04 13:01 41.25114 28.99000 11514 ft 381 kts 146°
2026-05-04 13:01 41.22805 29.00741 12293 ft 382 kts 146°
2026-05-04 13:01 41.20485 29.02485 13077 ft 384 kts 146°
2026-05-04 13:01 41.18150 29.04232 13789 ft 387 kts 146°
2026-05-04 13:02 41.15782 29.05993 14414 ft 390 kts 146°
2026-05-04 13:02 41.13401 29.07759 15004 ft 393 kts 146°
2026-05-04 13:02 41.11009 29.09532 15645 ft 395 kts 146°
2026-05-04 13:02 41.08604 29.11318 16337 ft 398 kts 146°
2026-05-04 13:03 41.06181 29.13121 16959 ft 400 kts 146°
2026-05-04 13:03 41.03665 29.14757 17528 ft 409 kts 157°
2026-05-04 13:03 41.01838 29.15408 17921 ft 415 kts 167°
2026-05-04 13:03 40.98972 29.15976 18520 ft 417 kts 169°
2026-05-04 13:04 40.96083 29.16482 19022 ft 421 kts 169°
2026-05-04 13:04 40.93169 29.16996 19489 ft 425 kts 169°
2026-05-04 13:04 40.90228 29.17539 19974 ft 428 kts 169°
2026-05-04 13:04 40.87277 29.18110 20465 ft 430 kts 168°
2026-05-04 13:05 40.84307 29.18704 20945 ft 433 kts 168°
2026-05-04 13:05 40.81319 29.19314 21413 ft 436 kts 168°
2026-05-04 13:05 40.78309 29.19936 21875 ft 439 kts 168°
2026-05-04 13:05 40.75284 29.20562 22335 ft 442 kts 168°
2026-05-04 13:06 40.72235 29.21194 22783 ft 445 kts 168°
2026-05-04 13:06 40.69166 29.21829 23238 ft 448 kts 168°
2026-05-04 13:06 40.66077 29.22467 23673 ft 451 kts 168°
2026-05-04 13:06 40.62969 29.23108 24056 ft 453 kts 168°
2026-05-04 13:07 40.59839 29.23752 24436 ft 455 kts 168°
2026-05-04 13:07 40.56742 29.24389 24794 ft 458 kts 168°
2026-05-04 13:07 40.53588 29.25037 25146 ft 460 kts 168°
2026-05-04 13:07 40.50420 29.25687 25502 ft 462 kts 168°
2026-05-04 13:08 40.47226 29.26342 25842 ft 465 kts 168°
2026-05-04 13:08 40.44028 29.26997 26189 ft 467 kts 168°
2026-05-04 13:08 40.40809 29.27655 26516 ft 469 kts 168°
2026-05-04 13:08 40.37581 29.28315 26850 ft 471 kts 168°
2026-05-04 13:09 40.34329 29.28979 27188 ft 473 kts 168°
2026-05-04 13:09 40.31063 29.29645 27483 ft 475 kts 168°
2026-05-04 13:09 40.27787 29.30313 27781 ft 478 kts 168°
2026-05-04 13:09 40.24495 29.30984 28075 ft 480 kts 168°
2026-05-04 13:10 40.21187 29.31656 28387 ft 482 kts 168°
2026-05-04 13:10 40.17872 29.32330 28684 ft 484 kts 168°
2026-05-04 13:10 40.14536 29.33007 28960 ft 486 kts 168°
2026-05-04 13:10 40.11227 29.33678 29235 ft 488 kts 168°
2026-05-04 13:11 40.07829 29.34366 29619 ft 488 kts 168°
2026-05-04 13:11 40.04524 29.35034 30056 ft 486 kts 168°
2026-05-04 13:11 40.01185 29.35709 30445 ft 484 kts 168°
2026-05-04 13:11 39.97868 29.36379 30830 ft 482 kts 168°
2026-05-04 13:12 39.94551 29.37049 31184 ft 481 kts 168°
2026-05-04 13:12 39.91251 29.37800 31530 ft 479 kts 164°
2026-05-04 13:12 39.88087 29.39071 31839 ft 474 kts 154°
2026-05-04 13:12 39.85068 29.40746 32181 ft 471 kts 153°
2026-05-04 13:13 39.82065 29.42465 32469 ft 471 kts 153°
2026-05-04 13:13 39.79065 29.44176 32732 ft 471 kts 154°
2026-05-04 13:13 39.76062 29.45860 33003 ft 470 kts 154°
2026-05-04 13:14 39.70050 29.49170 32997 ft 472 kts 155°
2026-05-04 13:14 39.64014 29.52467 32986 ft 468 kts 155°
2026-05-04 13:15 39.57971 29.55575 32993 ft 466 kts 157°
2026-05-04 13:15 39.51916 29.58547 32987 ft 464 kts 157°
2026-05-04 13:16 39.45871 29.61526 32994 ft 464 kts 157°
2026-05-04 13:16 39.39826 29.64527 32993 ft 466 kts 157°
2026-05-04 13:17 39.33794 29.67525 32993 ft 468 kts 157°
2026-05-04 13:17 39.27688 29.70555 32982 ft 472 kts 157°
2026-05-04 13:18 39.21551 29.73592 32992 ft 473 kts 157°
2026-05-04 13:18 39.15379 29.76640 32989 ft 475 kts 158°
2026-05-04 13:19 39.09190 29.79692 32984 ft 477 kts 158°
2026-05-04 13:19 39.02996 29.82740 32994 ft 477 kts 158°
2026-05-04 13:20 38.96785 29.85792 32978 ft 478 kts 158°
2026-05-04 13:20 38.90564 29.88842 32987 ft 478 kts 158°
2026-05-04 13:21 38.84345 29.91849 32981 ft 478 kts 158°
2026-05-04 13:21 38.78148 29.94782 32981 ft 478 kts 159°
2026-05-04 13:22 38.71897 29.97737 32977 ft 478 kts 159°
2026-05-04 13:22 38.65658 30.00691 32976 ft 478 kts 159°
2026-05-04 13:23 38.59418 30.03644 32968 ft 478 kts 159°
2026-05-04 13:23 38.56286 30.05123 32572 ft 480 kts 159°
2026-05-04 13:23 38.53169 30.06595 32157 ft 474 kts 158°
2026-05-04 13:23 38.50125 30.08029 31724 ft 470 kts 158°
2026-05-04 13:24 38.47032 30.09486 31263 ft 466 kts 158°
2026-05-04 13:24 38.44001 30.10913 30819 ft 463 kts 158°
2026-05-04 13:24 38.41024 30.12313 30388 ft 460 kts 158°
2026-05-04 13:25 38.35046 30.15122 29398 ft 456 kts 158°
2026-05-04 13:25 38.32080 30.16507 28906 ft 452 kts 158°
2026-05-04 13:25 38.29124 30.17865 28434 ft 449 kts 158°
2026-05-04 13:25 38.26198 30.19203 27972 ft 446 kts 159°
2026-05-04 13:26 38.23291 30.20535 27518 ft 443 kts 159°
2026-05-04 13:26 38.20396 30.21864 27054 ft 440 kts 159°
2026-05-04 13:26 38.17523 30.23183 26607 ft 438 kts 159°
2026-05-04 13:26 38.14666 30.24494 26164 ft 435 kts 159°
2026-05-04 13:27 38.11833 30.25794 25737 ft 432 kts 159°
2026-05-04 13:27 38.09011 30.27088 25413 ft 427 kts 159°
2026-05-04 13:27 38.06246 30.28354 25250 ft 417 kts 159°
2026-05-04 13:27 38.03545 30.29589 25079 ft 409 kts 160°
2026-05-04 13:28 38.00959 30.31001 24877 ft 400 kts 146°
2026-05-04 13:28 37.98790 30.33052 24744 ft 390 kts 139°
2026-05-04 13:28 37.96706 30.35203 24577 ft 383 kts 138°
2026-05-04 13:28 37.94643 30.37328 24428 ft 383 kts 139°
2026-05-04 13:29 37.92541 30.39453 24288 ft 390 kts 140°
2026-05-04 13:29 37.90398 30.41586 24123 ft 394 kts 140°
2026-05-04 13:29 37.88206 30.43655 23934 ft 392 kts 149°
2026-05-04 13:29 37.85670 30.44873 23765 ft 390 kts 172°
2026-05-04 13:30 37.82987 30.44932 23605 ft 384 kts 192°
2026-05-04 13:30 37.80462 30.43997 23432 ft 374 kts 211°
2026-05-04 13:30 37.78267 30.42293 23280 ft 368 kts 219°
2026-05-04 13:30 37.76175 30.40444 23088 ft 366 kts 219°
2026-05-04 13:31 37.74085 30.38606 22931 ft 366 kts 219°
2026-05-04 13:31 37.71984 30.36789 22778 ft 365 kts 219°
2026-05-04 13:31 37.69880 30.34991 22622 ft 365 kts 218°
2026-05-04 13:31 37.67774 30.33200 22444 ft 364 kts 218°
2026-05-04 13:32 37.65671 30.31415 22298 ft 363 kts 218°
2026-05-04 13:32 37.63581 30.29640 22147 ft 362 kts 218°
2026-05-04 13:32 37.61478 30.27953 21995 ft 364 kts 210°
2026-05-04 13:32 37.59032 30.27057 21853 ft 370 kts 191°
2026-05-04 13:33 37.56477 30.26690 21710 ft 370 kts 188°
2026-05-04 13:33 37.53910 30.26393 21534 ft 371 kts 188°
2026-05-04 13:33 37.51342 30.26096 21379 ft 370 kts 187°
2026-05-04 13:33 37.48767 30.25877 21222 ft 370 kts 186°
2026-05-04 13:34 37.46209 30.25708 21220 ft 367 kts 186°
2026-05-04 13:34 37.43644 30.25548 21227 ft 369 kts 186°
2026-05-04 13:34 37.41074 30.25394 21222 ft 369 kts 186°
2026-05-04 13:34 37.38521 30.25247 21075 ft 368 kts 186°
2026-05-04 13:35 37.35956 30.25104 20816 ft 369 kts 186°
2026-05-04 13:35 37.30858 30.24839 20300 ft 365 kts 186°
2026-05-04 13:35 37.28329 30.24719 20045 ft 362 kts 186°
2026-05-04 13:36 37.25814 30.24609 19792 ft 360 kts 186°
2026-05-04 13:36 37.23315 30.24509 19551 ft 359 kts 186°
2026-05-04 13:36 37.20823 30.24417 19302 ft 357 kts 186°
2026-05-04 13:36 37.18339 30.24335 19058 ft 356 kts 186°
2026-05-04 13:37 37.15864 30.24261 18818 ft 355 kts 186°
2026-05-04 13:37 37.13393 30.24195 18578 ft 355 kts 186°
2026-05-04 13:37 37.10907 30.24133 18127 ft 361 kts 186°
2026-05-04 13:37 37.09232 30.24132 17771 ft 366 kts 180°
2026-05-04 13:38 37.05837 30.24885 17058 ft 374 kts 167°
2026-05-04 13:38 37.03326 30.25782 16550 ft 377 kts 166°
2026-05-04 13:38 37.00830 30.26711 16037 ft 379 kts 165°
2026-05-04 13:38 36.98363 30.27898 15515 ft 382 kts 154°
2026-05-04 13:39 36.96105 30.29668 15019 ft 385 kts 143°
2026-05-04 13:39 36.93983 30.31732 14510 ft 387 kts 141°
2026-05-04 13:39 36.91891 30.33852 13975 ft 386 kts 139°
2026-05-04 13:39 36.90011 30.36251 13438 ft 387 kts 127°
2026-05-04 13:40 36.88548 30.39047 12852 ft 381 kts 115°
2026-05-04 13:40 36.87562 30.42064 12310 ft 369 kts 106°
2026-05-04 13:40 36.86703 30.45046 11761 ft 362 kts 106°
2026-05-04 13:40 36.85903 30.47961 11543 ft 346 kts 105°
2026-05-04 13:41 36.85151 30.50736 11382 ft 329 kts 105°
2026-05-04 13:41 36.84434 30.53379 11264 ft 314 kts 105°
2026-05-04 13:41 36.83739 30.55931 10928 ft 310 kts 105°
2026-05-04 13:42 36.82345 30.61009 10459 ft 307 kts 109°
2026-05-04 13:42 36.81335 30.63351 10162 ft 310 kts 127°
2026-05-04 13:42 36.79675 30.65054 9886 ft 310 kts 154°
2026-05-04 13:42 36.77622 30.65741 9629 ft 306 kts 179°
2026-05-04 13:43 36.75497 30.65706 9247 ft 305 kts 185°
2026-05-04 13:43 36.73394 30.65550 8925 ft 299 kts 186°
2026-05-04 13:43 36.71312 30.65379 8323 ft 301 kts 186°
2026-05-04 13:43 36.69227 30.65205 7875 ft 298 kts 186°
2026-05-04 13:44 36.67168 30.65038 7421 ft 296 kts 186°
2026-05-04 13:44 36.65144 30.64880 6954 ft 294 kts 186°
2026-05-04 13:44 36.63110 30.64892 6482 ft 294 kts 171°
2026-05-04 13:44 36.61259 30.65897 6182 ft 287 kts 141°
2026-05-04 13:45 36.60032 30.67736 6029 ft 270 kts 112°
2026-05-04 13:45 36.59622 30.69951 5599 ft 260 kts 82°
2026-05-04 13:45 36.60112 30.72040 5290 ft 247 kts 51°
2026-05-04 13:45 36.61314 30.73442 5079 ft 231 kts 21°
2026-05-04 13:46 36.62732 30.74205 4982 ft 215 kts 16°
2026-05-04 13:46 36.64093 30.74855 4801 ft 205 kts 16°
2026-05-04 13:46 36.65387 30.75471 4636 ft 190 kts 15°
2026-05-04 13:46 36.66576 30.75986 4506 ft 172 kts
2026-05-04 13:47 36.67712 30.76197 4312 ft 162 kts
2026-05-04 13:47 36.68823 30.76351 4096 ft 160 kts
2026-05-04 13:47 36.69927 30.76502 3892 ft 159 kts
2026-05-04 13:47 36.71008 30.76650 3673 ft 157 kts
2026-05-04 13:48 36.72084 30.76798 3487 ft 153 kts
2026-05-04 13:48 36.73128 30.76942 3275 ft 150 kts
2026-05-04 13:48 36.74159 30.77083 3067 ft 149 kts
2026-05-04 13:48 36.75182 30.77224 2874 ft 147 kts
2026-05-04 13:49 36.76185 30.77362 2675 ft 144 kts
2026-05-04 13:49 36.77189 30.77500 2497 ft 146 kts
2026-05-04 13:49 36.78212 30.77640 2305 ft 148 kts
2026-05-04 13:49 36.79238 30.77782 2087 ft 147 kts
2026-05-04 13:50 36.80220 30.77919 1925 ft 135 kts
2026-05-04 13:50 36.81171 30.78048 1740 ft 141 kts
2026-05-04 13:50 36.82145 30.78180 1561 ft 140 kts
2026-05-04 13:50 36.83120 30.78320 1322 ft 141 kts
2026-05-04 13:51 36.84101 30.78463 1119 ft 145 kts
2026-05-04 13:51 36.84767 30.78553 977 ft 145 kts 359°
2026-05-04 13:51 36.85775 30.78686 748 ft 145 kts 356°
2026-05-04 13:51 36.87131 30.78858 524 ft 148 kts 358°
2026-05-04 13:52 36.88842 30.79120 220 ft 147 kts 356°
2026-05-04 13:52 36.89776 30.79224 202 ft 121 kts
2026-05-04 13:52 36.90491 30.79336 203 ft 86 kts
2026-05-04 13:53 36.90963 30.79399 203 ft 50 kts
2026-05-04 13:53 36.91181 30.79428 194 ft 18 kts
2026-05-04 13:53 36.91226 30.79450 189 ft 6 kts 58°
2026-05-04 13:54 36.91225 30.79552 190 ft 6 kts 96°
2026-05-04 13:54 36.91221 30.79603 190 ft 6 kts 95°
2026-05-04 13:54 36.91168 30.79650 198 ft 6 kts 186°
2026-05-04 13:55 36.91125 30.79644 190 ft 7 kts 186°
2026-05-04 13:55 36.91006 30.79626 193 ft 10 kts 187°
2026-05-04 13:55 36.90929 30.79614 196 ft 12 kts 187°
2026-05-04 13:56 36.90842 30.79603 194 ft 13 kts 185°
2026-05-04 13:56 36.90745 30.79590 200 ft 14 kts 187°
2026-05-04 13:56 36.90674 30.79666 201 ft 9 kts 44°
2026-05-04 13:57 36.90726 30.79714 196 ft 9 kts 34°
2026-05-04 13:57 36.90787 30.79734 196 ft 9 kts
2026-05-04 13:58 36.90948 30.79844 194 ft 9 kts 12°
2026-05-04 13:58 36.90992 30.79914 190 ft 5 kts 97°
2026-05-04 13:58 36.90988 30.79950 202 ft 3 kts 97°
2026-05-04 13:59 36.90988 30.79958 197 ft 0 kts 97°